This demonstration page uses our WeatherBlox Daily Observations layout. Learn more.

Left ArrowRight Arrow

39.01783, -85.05884

Hourly Observations for February 2, 2019

Temp ( °F °C ) Dew Point ( °F °C ) Humidity (%) Winds ( mph kmh ) Pressure ( in mb ) Visibility ( mi km ) Precip ( " mm )
12:09 am 00:09 Cloudy with Patchy Fog 26 -3.3 24 -4.4 92 92 S 6 9 30.37 1028 0 0 0.00 0.00
12:37 am 00:37 Mostly Cloudy with Freezing Fog 27 -2.8 26 -3.3 96 96 SSE 3 6 30.37 1028 1 2 0.00 0.00
12:52 am 00:52 Mostly Cloudy with Freezing Fog 28 -2.2 26 -3.3 92 92 S 6 9 30.33 1027 1 2 0.00 0.00
1:52 am 01:52 Mostly Cloudy with Freezing Fog 27 -2.8 26 -3.3 96 96 S 6 9 30.31 1026 1 2 0.00 0.00
2:52 am 02:52 Mostly Cloudy with Freezing Fog 28 -2.2 26 -3.3 92 92 SSE 5 7 30.30 1026 1 2 0.00 0.00
3:32 am 03:32 Mostly Cloudy with Freezing Fog 28 -2.2 27 -2.8 96 96 SSE 5 7 30.33 1027 1 2 0.00 0.00
3:52 am 03:52 Mostly Cloudy with Freezing Fog 28 -2.2 27 -2.8 96 96 S 7 11 30.29 1026 1 2 0.00 0.00
4:17 am 04:17 Mostly Cloudy with Freezing Fog 28 -2.2 27 -2.8 96 96 S 8 13 30.32 1027 1 2 0.00 0.00
4:52 am 04:52 Mostly Cloudy with Freezing Fog 28 -2.2 27 -2.8 96 96 S 5 7 30.29 1026 1 2 0.00 0.00
5:52 am 05:52 Mostly Cloudy with Freezing Fog 29 -1.7 27 -2.8 92 92 S 8 13 30.27 1025 1 2 0.00 0.00
6:27 am 06:27 Mostly Cloudy with Freezing Fog 29 -1.7 27 -2.8 92 92 SSW 5 7 30.31 1027 1 2 0.00 0.00
6:52 am 06:52 Mostly Cloudy with Freezing Fog 28 -2.2 26 -3.3 92 92 SSW 5 7 30.28 1025 1 2 0.00 0.00
7:52 am 07:52 Mostly Cloudy with Freezing Fog 28 -2.2 26 -3.3 92 92 S 6 9 30.27 1025 1 2 0.00 0.00
8:52 am 08:52 Mostly Cloudy with Freezing Fog 28 -2.2 26 -3.3 92 92 SSE 8 13 30.27 1025 1 2 0.00 0.00
9:52 am 09:52 Mostly Cloudy with Freezing Fog 30 -1.1 28 -2.2 92 92 S 5 7 30.27 1025 1 2 0.00 0.00
10:52 am 10:52 Mostly Cloudy with Freezing Fog 31 -0.6 30 -1.1 96 96 S 6 9 30.27 1025 1 2 0.00 0.00
11:02 am 11:02 Mostly Cloudy with Fog 32 0 30 -1.1 92 92 S 6 9 30.30 1026 1 2 0.00 0.00
11:52 am 11:52 Cloudy with Mist and Fog 32 0 32 0 100 100 S 6 9 30.26 1025 1 2 0.00 0.00
12:17 pm 12:17 Cloudy with Mist and Fog 34 1.1 33 0.6 97 97 S 6 9 30.27 1025 2 3 0.00 0.00
12:52 pm 12:52 Mostly Cloudy with Mist and Fog 36 2.2 33 0.6 89 89 S 7 11 30.22 1023 5 8 0.00 0.00
1:27 pm 13:27 Cloudy 37 2.8 34 1.1 89 89 SSE 5 7 30.22 1023 7 11 0.00 0.00
1:52 pm 13:52 Mostly Cloudy 41 5 35 1.7 79 79 S 6 9 30.19 1022 7 11 0.00 0.00
2:52 pm 14:52 Mostly Cloudy 45 7.2 35 1.7 68 68 SW 6 9 30.16 1021 10 16 0.00 0.00
3:52 pm 15:52 Partly Cloudy 47 8.3 37 2.8 69 69 WSW 6 9 30.15 1021 10 16 0.00 0.00
4:52 pm 16:52 Mostly Sunny 46 8 37 3 71 71 SSW 8 13 30.15 1021 10 16 0.00 0.00
5:52 pm 17:52 Mostly Sunny 44 6.7 36 2.2 73 73 S 5 7 30.13 1020 10 16 0.00 0.00
6:52 pm 18:52 Clear 41 5 36 2.2 82 82 S 3 6 30.12 1020 10 16 0.00 0.00
7:52 pm 19:52 Mostly Clear 38 3.3 34 1.1 86 86 ESE 3 6 30.13 1020 9 14 0.00 0.00
8:52 pm 20:52 Partly Cloudy 38 3.3 34 1.1 86 86 ESE 5 7 30.12 1020 8 13 0.00 0.00
9:52 pm 21:52 Partly Cloudy 40 4.4 36 2.2 86 86 SE 5 7 30.11 1020 8 13 0.00 0.00
10:52 pm 22:52 Mostly Cloudy 39 3.9 36 2.2 89 89 Calm 30.11 1020 8 13 0.00 0.00
11:52 pm 23:52 Mostly Clear 39 3.9 36 2.2 89 89 S 6 9 30.09 1019 10 16 0.00 0.00

Powered by AerisWeather